Regional Weather Roundup
Issued by NWS

Home | Current Version | Previous Version | Graphics & Text | Print | Product List | Glossary On
Versions: 1 2 3 4 5 6 7 8 9 10 11 12 13 14 15 16 17 18 19 20 21 22 23 24 25 26 27 28 29 30 31 32 33 34 35 36 37 38 39 40 41 42 43 44 45 46 47 48
000
ASUS43 KDMX 210307
RWRIA

WEATHER ROUNDUP FOR IOWA
NATIONAL WEATHER SERVICE DES MOINES IA
1000 PM CDT WED AUG 20 2014

NOTE: "FAIR" INDICATES FEW OR NO CLOUDS BELOW 12,000 FEET WITH NO
SIGNIFICANT WEATHER AND/OR OBSTRUCTIONS TO VISIBILITY.

* - THESE STATIONS ARE NOT NWS STATIONS...THUS NOT UNDER NWS
QUALITY CONTROL.  THEY ALSO DO NOT REPORT WEATHER SUCH
AS PRECIPITATION OR FOG.

IAZ001>003-012>014-020>022-031>034-043>046-210400-
   NORTHWEST IOWA

CITY           SKY/WX    TMP DP  RH WIND       PRES   REMARKS
CARROLL *      CLEAR     73  72  94 CALM      29.82S
CHEROKEE *     PTCLDY    72  72 100 CALM      29.81S
DENISON *      CLEAR     79  75  89 S14G22    29.79R HX  82
LE MARS *      CLEAR     77  75  94 SE10      29.78S
ORANGE CITY *  CLEAR     73  72  94 SE5       29.80S
SHELDON *      CLOUDY    72  72 100 SE9       29.80S
SIOUX CITY     MOCLDY    79  75  87 SE10      29.76S HX  83
SPENCER        CLOUDY    72  69  90 SE8       29.83R
STORM LAKE *   CLEAR     70  70 100 E5        29.84S FOG
$$

IAZ055>058-069>071-079>083-090>094-210400-
   SOUTHWEST IOWA

CITY           SKY/WX    TMP DP  RH WIND       PRES   REMARKS
ATLANTIC *     CLEAR     79  75  89 SE6       29.81S HX  82
AUDUBON *      CLEAR     79  75  89 S3        29.84S HX  82
CLARINDA *     PTCLDY    81  75  83 VRB6      29.83R HX  86
COUNCIL BLFS *   N/A     79  75  89 SE13      29.78S HX  82
CRESTON *      CLEAR     77  75  94 S9        29.85S
HARLAN  *      CLEAR     79  77  94 S6        29.84S HX  83
LAMONI         CLEAR     79  74  84 SE9       29.86R HX  82
RED OAK *      CLEAR     81  75  83 S7        29.81S HX  86
SHENANDOAH *   CLEAR     81  75  83 SE12      29.80S HX  86
$$

IAZ047>049-059>061-072>074-084-210400-
   CENTRAL IOWA

CITY           SKY/WX    TMP DP  RH WIND       PRES   REMARKS
AMES           PTCLDY    72  71  97 SE3       29.85R
ANKENY *       CLEAR     75  73  94 NE3       29.84R
CHARITON *     CLEAR     77  73  88 S9        29.86R
DES MOINES     PTCLDY    78  73  84 S7        29.82S HX  81
GRINNELL*      CLEAR     72  70  94 SE5       29.88R
KNOXVILLE *    CLEAR     77  73  88 SE6       29.84R
MARSHALLTOWN   PTCLDY    69  68  96 E7        29.86R
PELLA *        CLEAR     75  73  94 SE6       29.86S
PERRY *          N/A     73  72  94 E5        29.84R
$$

IAZ004>006-015-016-023>025-035-036-210400-
   NORTH CENTRAL IOWA

CITY           SKY/WX    TMP DP  RH WIND       PRES   REMARKS
ALGONA *       MOCLDY    72  70  94 SE7G13    29.85S
CLARION *      PTCLDY    72  70  94 SE9       29.85F
ESTHERVILLE    CLOUDY    69  69 100 E6        29.84R
FORT DODGE *   MOCLDY    70  68  94 E7        29.86R
MASON CITY     CLOUDY    70  68  93 SE7       29.89S
FOREST CITY *  CLEAR     70  70 100 E3        29.87S
IOWA FALLS *     N/A     68  66  94 E5        29.88S
$$

IAZ007>011-017>019-026>030-037>042-050>054-066-210400-
   NORTHEAST IOWA

CITY           SKY/WX    TMP DP  RH WIND       PRES   REMARKS
CEDAR RAPIDS   CLEAR     69  69 100 SE3       29.88R
CHARLES CITY * CLEAR     70  68  94 E6        29.89S
CLINTON *      MOCLDY    70  66  88 E7        29.94S
DECORAH *      MOCLDY    70  68  94 CALM      29.91R
DUBUQUE        PTCLDY    69  66  90 E5        29.92S
MONTICELLO *   CLEAR     68  68 100 E5        29.90R
OELWEIN *      PTCLDY    68  66  94 E5        29.91R
WATERLOO       PTCLDY    68  66  93 E5        29.87R
$$

IAZ064-065-067-068-078-210400-
   EAST CENTRAL IOWA

CITY           SKY/WX    TMP DP  RH WIND       PRES   REMARKS
DAVENPORT      PTCLDY    70  67  90 E7        29.91S
IOWA CITY      CLEAR     71  69  93 SE5       29.89R
MT. PLEASANT * CLEAR     75  73  94 SE3       29.89S
MUSCATINE *    CLEAR     70  68  94 CALM      29.90R
QUAD CITIES    PTCLDY    70  68  93 SE7       29.91R
$$

IAZ062-063-075>077-085>089-095>099-210400-
   SOUTHEAST IOWA

CITY           SKY/WX    TMP DP  RH WIND       PRES   REMARKS
BURLINGTON     LGT RAIN  76  74  93 S7        29.90R
FAIRFIELD *    CLEAR     73  72  94 E5        29.88R
FORT MADISON * CLEAR     79  75  89 SE7       29.91S HX  82
KEOKUK *       CLEAR     79  77  94 SE7       29.88F HX  83
OSKALOOSA *      N/A     72  72 100 E5        29.87R
CENTERVILLE *  CLEAR     75  75 100 SE6       29.89S
OTTUMWA        CLEAR     77  74  90 S7        29.86R
WASHINGTON *     N/A     72  72 100 SE6       29.89R
$$

ABBREVIATIONS USED IN REMARKS
   TC - TEMPERATURES IN CELSIUS
  WCI - WIND CHILL INDEX
   HX - HEAT INDEX
  VSB - VISIBILITY
$$




USA.gov is the U.S. government's official web portal to all federal, state and local government web resources and services.